RH
80 81 81 81 81 80 79 78 75 72 66 59 55 52 50 48 46 44 43 42 41 39 37 36 34 32 31 29 28 27 26 26 25 25 24 24 24 24 24 24 25 26 25 23 23 22 21 20 19 17 17 16 15 13 13 12 11 11 11 11 12 13 14
82 83 82 82 81 80 78 76 72 67 62 56 52 51 50 48 46 45 44 42 40 38 35 34 33 31 30 29 28 27 26 25 24 24 24 25 25 24 24 24 24 25 24 23 23 22 21 20 19 18 17 16 15 13 12 11 10 10 10 10 11 12 13
83 83 82 82 80 78 76 72 68 64 59 54 52 51 49 48 46 45 43 41 38 36 34 33 32 31 29 29 28 27 26 25 24 25 26 26 26 25 25 25 25 25 25 24 23 22 21 20 19 18 17 16 15 13 12 11 10 10 10 10 11 12 12
84 82 81 81 78 76 73 69 66 62 57 54 52 51 49 47 46 44 41 38 35 34 33 31 31 30 29 28 27 26 25 25 26 27 27 27 27 26 26 26 26 26 25 25 23 22 21 20 19 17 16 15 14 13 12 12 11 11 11 11 11 11 12
84 82 80 79 76 72 69 66 63 59 55 54 52 51 49 47 45 41 38 35 33 32 31 31 30 29 28 28 27 27 26 27 27 28 28 28 28 28 27 27 27 26 26 25 23 22 21 20 18 17 15 14 13 13 13 12 12 12 12 11 11 12 12
83 81 79 76 73 70 67 64 61 57 55 54 52 50 48 45 41 38 35 33 33 32 32 31 30 29 29 29 28 28 28 29 29 29 29 30 29 29 29 28 27 26 25 24 23 21 20 19 18 16 15 14 14 13 13 12 13 13 14 13 12 12 13
82 79 77 74 71 68 65 61 58 55 54 52 51 49 46 42 38 37 36 35 35 34 33 32 31 31 31 30 30 30 30 31 31 31 31 31 31 30 29 28 27 25 24 23 22 21 20 19 18 17 15 14 14 14 14 17 18 16 15 14 13 14 14
81 78 74 71 68 65 62 59 56 54 53 52 50 47 43 40 39 38 38 37 36 35 35 34 34 33 32 31 31 32 33 33 33 32 32 31 31 29 28 27 26 24 23 22 21 21 20 19 18 17 16 16 17 18 18 21 21 17 15 15 15 15 15
78 74 70 67 64 61 58 56 55 54 52 50 48 45 42 41 41 40 38 37 37 37 36 35 35 33 33 33 33 34 34 34 33 32 31 30 29 28 28 27 25 24 23 22 21 21 21 21 19 18 18 19 20 21 20 19 19 17 17 17 17 16 18
73 68 65 62 60 58 56 56 55 53 51 49 46 45 44 43 41 40 39 38 38 37 36 35 35 35 35 35 36 35 34 33 32 32 31 30 29 28 27 25 24 23 21 20 19 19 20 20 18 18 20 21 22 23 22 20 20 20 20 20 19 19 20
68 65 63 61 60 58 58 57 55 52 50 48 47 46 44 42 41 40 39 38 37 37 36 36 37 37 37 37 36 35 34 32 31 31 30 30 29 28 26 24 23 21 20 20 19 18 19 19 18 18 22 24 24 26 26 24 23 23 22 23 24 23 21
66 64 62 61 60 59 57 55 53 51 50 48 47 45 43 42 41 40 38 38 38 38 39 39 39 39 38 37 35 33 32 31 31 30 29 28 27 25 24 23 22 21 20 20 20 19 19 20 19 20 23 26 26 25 26 26 24 24 25 26 28 27 24
65 63 62 61 60 58 56 54 52 51 49 47 45 44 43 42 41 40 40 40 41 41 42 41 40 38 37 35 34 33 32 31 30 28 26 25 23 22 22 22 21 22 21 21 21 21 19 20 21 21 22 26 27 26 27 27 26 26 28 29 30 29 27
65 63 62 61 59 58 56 54 51 49 48 46 44 43 42 41 41 41 43 43 43 43 42 40 39 37 35 34 33 32 31 29 27 25 23 22 21 20 21 21 21 21 22 22 23 22 21 21 22 23 22 25 28 29 29 29 29 30 32 32 31 31 29
64 63 63 61 58 57 54 52 50 48 46 45 43 42 41 41 42 44 44 44 43 42 40 38 37 36 34 33 31 29 28 26 24 23 22 21 21 21 21 21 21 21 22 23 24 24 23 23 24 25 25 27 30 32 33 34 35 36 36 36 34 34 33
64 63 62 59 57 55 52 49 48 47 45 43 42 41 42 43 44 44 43 42 41 39 38 37 36 34 32 30 29 27 25 24 23 22 22 22 21 22 22 21 21 21 22 23 25 25 25 26 26 28 29 32 35 36 37 37 38 38 38 38 37 37 37
63 61 59 57 55 52 49 47 46 46 44 43 43 43 43 43 43 42 41 40 39 38 37 36 34 32 30 27 26 25 24 24 23 23 23 22 22 22 21 21 21 21 21 23 25 26 28 29 29 31 33 36 38 38 38 38 38 38 39 39 39 39 40
62 60 57 54 51 49 48 47 46 45 45 44 44 43 43 42 41 41 40 39 38 37 35 33 31 29 28 26 25 24 24 24 24 23 23 23 22 21 21 21 22 22 22 23 25 27 29 30 31 31 32 34 37 38 39 40 39 40 41 41 41 42 42
59 56 53 50 49 48 48 48 46 45 45 44 43 42 41 40 40 39 39 38 36 34 32 30 28 27 26 25 24 24 23 23 24 24 23 23 23 21 21 22 23 23 24 25 26 28 30 31 32 32 32 33 36 38 40 41 42 42 43 43 43 45 46
55 53 50 49 49 48 48 47 46 45 43 42 41 40 40 40 39 38 37 35 34 32 30 29 28 27 26 25 24 23 23 23 25 25 24 24 24 22 22 24 25 26 27 29 30 31 32 32 32 33 33 34 37 40 42 44 45 45 46 46 45 47 49
52 50 49 49 49 48 47 46 44 43 42 41 41 40 39 39 38 37 35 34 32 31 30 29 28 27 25 24 23 23 23 23 25 25 25 25 24 24 25 26 28 28 30 32 34 34 35 36 35 35 35 37 40 43 45 45 46 45 46 48 49 50 51
50 50 50 49 48 47 45 44 43 42 42 41 40 39 39 38 37 36 34 33 32 30 29 28 27 26 25 25 24 23 23 23 24 24 24 24 25 26 27 29 30 31 32 34 36 38 39 39 38 38 40 43 45 46 46 46 46 47 48 50 51 52 52
50 49 48 47 46 45 43 43 42 42 42 41 40 39 39 38 36 35 33 32 31 29 29 28 27 26 25 24 23 23 23 23 24 23 23 24 25 27 29 30 31 33 35 35 37 39 40 40 40 42 45 47 48 48 47 47 47 48 50 51 52 53 53
48 47 46 46 45 44 43 43 43 42 42 41 40 39 38 36 34 33 32 31 30 29 28 27 26 25 24 24 23 23 23 23 22 23 23 24 26 27 29 32 34 35 37 38 38 39 39 40 43 46 49 50 49 48 48 48 49 50 51 52 53 54 54
47 46 45 44 44 44 43 43 43 42 41 40 39 37 36 34 33 32 32 31 29 28 27 26 26 25 24 23 22 22 22 22 22 24 25 26 27 29 31 34 37 38 40 40 40 39 40 42 46 50 52 51 49 47 48 49 51 53 54 55 56 56 58
45 44 43 43 43 44 44 44 43 42 40 39 37 36 35 34 32 32 30 29 28 27 26 26 25 24 23 22 22 22 22 23 24 25 26 28 30 33 35 37 38 40 41 42 42 42 43 45 48 51 53 51 48 47 49 51 53 55 58 60 59 60 63
44 43 43 43 44 44 44 44 43 41 40 38 36 35 34 32 31 30 29 28 26 26 25 25 23 22 21 21 22 23 24 25 26 27 29 32 34 36 37 38 39 40 42 43 44 45 46 48 50 52 51 49 47 47 50 53 55 59 62 64 64 65 67
43 44 44 45 45 45 44 43 42 41 39 36 35 33 32 30 30 28 28 27 26 25 24 22 21 20 20 21 22 23 25 27 29 31 33 36 38 39 39 39 39 41 42 43 44 46 48 50 51 51 50 48 48 49 51 54 57 61 64 66 67 67 69
45 47 47 46 46 45 43 42 41 39 37 35 34 32 31 30 29 28 27 26 25 24 23 21 20 21 22 23 24 26 28 31 34 36 37 39 40 40 40 39 40 41 43 45 47 49 50 51 50 49 49 49 49 50 52 54 57 60 62 64 66 66 66
48 49 48 47 45 43 42 41 39 37 36 34 32 31 29 28 28 27 26 25 24 23 23 22 22 24 25 26 28 30 33 36 38 40 40 41 41 42 41 41 41 42 45 47 48 48 48 48 48 48 49 50 50 51 52 53 54 56 58 59 61 61 62
49 48 47 46 45 43 42 40 37 35 32 31 30 29 28 27 26 25 24 24 24 24 24 25 26 27 28 30 32 35 38 40 40 41 41 42 43 44 44 43 43 44 46 46 46 45 45 44 44 45 46 47 49 49 48 48 49 50 52 53 54 54 55
50 49 47 46 44 42 39 36 33 31 30 29 29 29 27 26 24 23 24 25 26 27 27 28 29 29 31 34 37 39 40 39 39 40 41 42 44 45 46 45 45 45 44 43 42 42 42 41 42 42 42 44 45 45 44 44 44 45 46 47 47 47 48
50 49 46 44 41 38 35 32 30 29 29 29 28 27 25 23 23 24 26 28 29 29 29 30 31 33 36 39 40 38 36 35 37 40 42 43 44 46 47 46 44 42 40 40 41 41 41 41 42 41 41 42 43 44 44 43 44 45 45 46 46 46 47
49 46 43 39 36 34 31 30 29 29 29 28 26 24 24 24 25 26 29 31 31 31 31 32 35 37 40 40 37 34 33 34 37 40 42 44 44 44 45 43 41 39 38 39 40 41 41 42 42 42 42 42 43 44 45 46 47 47 48 49 49 49 48
44 42 38 35 33 32 30 29 29 28 26 24 24 25 26 28 29 29 30 31 32 33 35 38 40 41 39 36 34 33 34 35 38 40 42 42 42 41 40 40 39 39 39 40 41 41 41 41 42 42 42 43 43 45 47 48 49 50 51 51 52 51 50
38 35 32 31 31 31 29 27 26 24 23 24 26 28 30 31 31 31 31 32 34 37 41 43 42 39 36 34 34 35 36 36 37 38 39 39 39 39 39 40 42 42 42 43 43 44 43 43 43 43 44 44 44 45 46 48 49 51 52 52 52 52 50